User: anonymous   Login
Location: Griffin Ranch
(33.6186°N, 110.6622°W)
Time: 17:14:34
(UTC-07:00)
Language:

Cosmos 1812 - Orbit

View from above orbital plane
View from above orbital plane
View from above satellite
View from above satellite

Ground track
Ground track

The orbit data is extracted from the following two-line orbital elements,

1 17295U 87003A   17053.03969032  .00001240  00000-0  66094-4 0  9996
2 17295  82.5122 258.2637 0004066 146.9926 213.1560 15.14289888641533
Epoch (UTC): 22 February 2017 00:57:09
Eccentricity: 0.0004066
inclination: 82.5122°
perigee height: 520 km
apogee height: 526 km
right ascension of ascending node: 258.2637°
argument of perigee: 146.9926°
revolutions per day: 15.14289888
mean anomaly at epoch: 213.1560°
orbit number at epoch: 64153

The dashed part of the orbit path shows where the satellite is in the earth's shadow,  

DLR